Time,TemperatureF,DewpointF,PressureIn,WindDirection,WindDirectionDegrees,WindSpeedMPH,WindSpeedGustMPH,Humidity,HourlyPrecipIn,Conditions,Clouds,dailyrainin,SolarRadiationWatts/m^2,SoftwareType,DateUTC
2013-03-12 00:21:00,65.0,16.0,-100.00,South,181,0.0,4.0,15,0.00,,,-99.99,0.000000,,2013-03-12 07:21:00,
2013-03-12 00:32:00,65.0,16.0,-100.00,South,181,0.0,4.0,15,0.00,,,-99.99,0.000000,,2013-03-12 07:32:00,
2013-03-12 01:22:00,64.0,21.0,-100.00,WNW,296,0.0,8.0,19,0.00,,,0.00,0.000000,,2013-03-12 08:22:00,
2013-03-12 01:32:00,64.0,21.0,-100.00,WNW,296,0.0,8.0,19,0.00,,,0.00,0.000000,,2013-03-12 08:32:00,
2013-03-12 01:42:00,64.0,21.0,-100.00,WNW,296,0.0,8.0,19,0.00,,,0.00,0.000000,,2013-03-12 08:42:00,
2013-03-12 01:51:00,64.0,21.0,-100.00,WNW,296,0.0,8.0,19,0.00,,,0.00,0.000000,,2013-03-12 08:51:00,
2013-03-12 02:12:00,61.0,21.0,-100.00,SW,229,0.0,3.0,21,0.00,,,0.00,0.000000,,2013-03-12 09:12:00,
2013-03-12 02:22:00,61.0,21.0,-100.00,SW,229,0.0,3.0,21,0.00,,,0.00,0.000000,,2013-03-12 09:22:00,
2013-03-12 02:32:00,61.0,21.0,-100.00,SW,229,0.0,3.0,21,0.00,,,0.00,0.000000,,2013-03-12 09:32:00,
2013-03-12 02:42:00,61.0,21.0,-100.00,SW,229,0.0,3.0,21,0.00,,,0.00,0.000000,,2013-03-12 09:42:00,
2013-03-12 02:51:00,61.0,21.0,-100.00,SW,229,0.0,3.0,21,0.00,,,0.00,0.000000,,2013-03-12 09:51:00,
2013-03-12 02:52:00,60.0,19.0,-100.00,WSW,248,0.0,5.0,20,0.00,,,0.00,0.000000,,2013-03-12 09:52:00,
2013-03-12 03:22:00,60.0,19.0,-100.00,WSW,248,0.0,5.0,20,0.00,,,0.00,0.000000,,2013-03-12 10:22:00,
2013-03-12 03:32:00,60.0,19.0,-100.00,WSW,248,0.0,5.0,20,0.00,,,0.00,0.000000,,2013-03-12 10:32:00,
2013-03-12 03:42:00,60.0,19.0,-100.00,WSW,248,0.0,5.0,20,0.00,,,0.00,0.000000,,2013-03-12 10:42:00,
2013-03-12 03:52:00,63.0,20.0,-100.00,North,349,0.0,7.0,19,0.00,,,0.00,0.000000,,2013-03-12 10:52:00,
2013-03-12 04:22:00,63.0,20.0,-100.00,North,349,0.0,7.0,19,0.00,,,0.00,0.000000,,2013-03-12 11:22:00,
2013-03-12 04:32:00,63.0,20.0,-100.00,North,349,0.0,7.0,19,0.00,,,0.00,0.000000,,2013-03-12 11:32:00,
2013-03-12 04:42:00,63.0,20.0,-100.00,North,349,0.0,7.0,19,0.00,,,0.00,0.000000,,2013-03-12 11:42:00,
2013-03-12 04:52:00,58.0,25.0,-100.00,SSE,147,0.0,2.0,28,0.00,,,0.00,0.000000,,2013-03-12 11:52:00,
2013-03-12 05:22:00,58.0,25.0,-100.00,SSE,147,0.0,2.0,28,0.00,,,0.00,0.000000,,2013-03-12 12:22:00,
2013-03-12 05:32:00,58.0,25.0,-100.00,SSE,147,0.0,2.0,28,0.00,,,0.00,0.000000,,2013-03-12 12:32:00,
2013-03-12 05:42:00,58.0,25.0,-100.00,SSE,147,0.0,2.0,28,0.00,,,0.00,0.000000,,2013-03-12 12:42:00,
2013-03-12 05:52:00,58.0,21.0,-100.00,NE,40,0.0,4.0,24,0.00,,,0.00,0.000000,,2013-03-12 12:52:00,
2013-03-12 06:12:00,58.0,21.0,-100.00,NE,40,0.0,4.0,24,0.00,,,0.00,0.000000,,2013-03-12 13:12:00,
2013-03-12 06:22:00,58.0,21.0,-100.00,NE,40,0.0,4.0,24,0.00,,,0.00,0.000000,,2013-03-12 13:22:00,
2013-03-12 06:32:00,58.0,21.0,-100.00,NE,40,0.0,4.0,24,0.00,,,0.00,0.000000,,2013-03-12 13:32:00,
2013-03-12 06:42:00,58.0,21.0,-100.00,NE,40,0.0,4.0,24,0.00,,,0.00,0.000000,,2013-03-12 13:42:00,
2013-03-12 06:52:00,60.0,21.0,-100.00,SSW,192,0.0,5.0,22,0.00,,,0.00,0.000000,,2013-03-12 13:52:00,
2013-03-12 07:22:00,60.0,21.0,-100.00,SSW,192,0.0,5.0,22,0.00,,,0.00,0.000000,,2013-03-12 14:22:00,
2013-03-12 07:32:00,60.0,21.0,-100.00,SSW,192,0.0,5.0,22,0.00,,,0.00,0.000000,,2013-03-12 14:32:00,
2013-03-12 07:42:00,60.0,21.0,-100.00,SSW,192,0.0,5.0,22,0.00,,,0.00,0.000000,,2013-03-12 14:42:00,
2013-03-12 07:52:00,64.0,21.0,-100.00,WNW,298,0.0,4.0,19,0.00,,,0.00,59.000000,,2013-03-12 14:52:00,
2013-03-12 08:12:00,64.0,21.0,-100.00,WNW,298,0.0,4.0,19,0.00,,,0.00,59.000000,,2013-03-12 15:12:00,
2013-03-12 08:22:00,64.0,21.0,-100.00,WNW,298,0.0,4.0,19,0.00,,,0.00,59.000000,,2013-03-12 15:22:00,
2013-03-12 08:32:00,64.0,21.0,-100.00,WNW,298,0.0,4.0,19,0.00,,,0.00,59.000000,,2013-03-12 15:32:00,
2013-03-12 08:42:00,64.0,21.0,-100.00,WNW,298,0.0,4.0,19,0.00,,,0.00,59.000000,,2013-03-12 15:42:00,
2013-03-12 08:52:00,75.0,26.0,-100.00,NW,304,0.0,3.0,16,0.00,,,0.00,153.000000,,2013-03-12 15:52:00,
2013-03-12 09:22:00,75.0,26.0,-100.00,NW,304,0.0,3.0,16,0.00,,,0.00,153.000000,,2013-03-12 16:22:00,
2013-03-12 09:42:00,75.0,26.0,-100.00,NW,304,0.0,3.0,16,0.00,,,0.00,153.000000,,2013-03-12 16:42:00,
2013-03-12 09:52:00,82.0,22.0,-100.00,NNE,33,2.0,8.0,11,0.00,,,0.00,367.000000,,2013-03-12 16:52:00,
2013-03-12 10:22:00,82.0,22.0,-100.00,NNE,33,2.0,8.0,11,0.00,,,0.00,367.000000,,2013-03-12 17:22:00,
2013-03-12 10:43:00,82.0,22.0,-100.00,NNE,33,2.0,8.0,11,0.00,,,0.00,367.000000,,2013-03-12 17:43:00,
2013-03-12 11:12:00,85.0,14.0,-100.00,NNE,14,3.0,10.0,7,0.00,,,0.00,757.000000,,2013-03-12 18:12:00,
2013-03-12 11:22:00,85.0,14.0,-100.00,NNE,14,3.0,10.0,7,0.00,,,0.00,757.000000,,2013-03-12 18:22:00,
2013-03-12 11:33:00,85.0,14.0,-100.00,NNE,14,3.0,10.0,7,0.00,,,0.00,757.000000,,2013-03-12 18:33:00,
2013-03-12 11:52:00,87.0,21.0,-100.00,ENE,64,5.0,10.0,9,0.00,,,0.00,950.000000,,2013-03-12 18:52:00,
2013-03-12 12:22:00,87.0,21.0,-100.00,ENE,64,5.0,10.0,9,0.00,,,0.00,950.000000,,2013-03-12 19:22:00,
2013-03-12 12:32:00,87.0,21.0,-100.00,ENE,64,5.0,10.0,9,0.00,,,0.00,950.000000,,2013-03-12 19:32:00,
2013-03-12 12:43:00,87.0,21.0,-100.00,ENE,64,5.0,10.0,9,0.00,,,0.00,950.000000,,2013-03-12 19:43:00,
2013-03-12 12:52:00,90.0,21.0,-100.00,SE,144,0.0,8.0,8,0.00,,,0.00,1037.000000,,2013-03-12 19:52:00,
2013-03-12 13:22:00,90.0,21.0,-100.00,SE,144,0.0,8.0,8,0.00,,,0.00,1037.000000,,2013-03-12 20:22:00,
2013-03-12 13:32:00,90.0,21.0,-100.00,SE,144,0.0,8.0,8,0.00,,,0.00,1037.000000,,2013-03-12 20:32:00,
2013-03-12 13:42:00,90.0,21.0,-100.00,SE,144,0.0,8.0,8,0.00,,,0.00,1037.000000,,2013-03-12 20:42:00,
2013-03-12 13:52:00,90.0,21.0,-100.00,East,92,6.0,11.0,8,0.00,,,-99.99,1042.000000,,2013-03-12 20:52:00,
2013-03-12 14:22:00,90.0,21.0,-100.00,East,92,6.0,11.0,8,0.00,,,-99.99,1042.000000,,2013-03-12 21:22:00,
2013-03-12 14:32:00,90.0,21.0,-100.00,East,92,6.0,11.0,8,0.00,,,-99.99,1042.000000,,2013-03-12 21:32:00,
2013-03-12 14:42:00,90.0,21.0,-100.00,East,92,6.0,11.0,8,0.00,,,-99.99,1042.000000,,2013-03-12 21:42:00,
2013-03-12 14:52:00,92.0,22.0,-100.00,ENE,67,2.0,10.0,8,0.00,,,0.00,966.000000,,2013-03-12 21:52:00,
2013-03-12 15:22:00,92.0,22.0,-100.00,ENE,67,2.0,10.0,8,0.00,,,0.00,966.000000,,2013-03-12 22:22:00,
2013-03-12 15:32:00,92.0,22.0,-100.00,ENE,67,2.0,10.0,8,0.00,,,0.00,966.000000,,2013-03-12 22:32:00,
2013-03-12 15:42:00,92.0,22.0,-100.00,ENE,67,2.0,10.0,8,0.00,,,0.00,966.000000,,2013-03-12 22:42:00,
2013-03-12 15:52:00,89.0,20.0,-100.00,ESE,102,5.0,11.0,8,0.00,,,0.00,813.000000,,2013-03-12 22:52:00,
2013-03-12 16:22:00,89.0,20.0,-100.00,ESE,102,5.0,11.0,8,0.00,,,0.00,813.000000,,2013-03-12 23:22:00,
2013-03-12 16:34:00,89.0,20.0,-100.00,ESE,102,5.0,11.0,8,0.00,,,0.00,813.000000,,2013-03-12 23:34:00,
2013-03-12 16:43:00,89.0,20.0,-100.00,ESE,102,5.0,11.0,8,0.00,,,0.00,813.000000,,2013-03-12 23:43:00,
2013-03-12 16:52:00,90.0,21.0,-100.00,East,83,6.0,10.0,8,0.00,,,0.00,601.000000,,2013-03-12 23:52:00,
2013-03-12 17:12:00,90.0,21.0,-100.00,East,83,6.0,10.0,8,0.00,,,0.00,601.000000,,2013-03-13 00:12:00,
2013-03-12 17:22:00,90.0,21.0,-100.00,East,83,6.0,10.0,8,0.00,,,0.00,601.000000,,2013-03-13 00:22:00,
2013-03-12 17:33:00,90.0,21.0,-100.00,East,83,6.0,10.0,8,0.00,,,0.00,601.000000,,2013-03-13 00:33:00,
2013-03-12 17:42:00,90.0,21.0,-100.00,East,83,6.0,10.0,8,0.00,,,0.00,601.000000,,2013-03-13 00:42:00,
2013-03-12 17:52:00,87.0,21.0,-100.00,ESE,108,5.0,10.0,9,0.00,,,0.00,296.000000,,2013-03-13 00:52:00,
2013-03-12 18:12:00,87.0,21.0,-100.00,ESE,108,5.0,10.0,9,0.00,,,0.00,296.000000,,2013-03-13 01:12:00,
2013-03-12 18:22:00,87.0,21.0,-100.00,ESE,108,5.0,10.0,9,0.00,,,0.00,296.000000,,2013-03-13 01:22:00,
2013-03-12 18:32:00,87.0,21.0,-100.00,ESE,108,5.0,10.0,9,0.00,,,0.00,296.000000,,2013-03-13 01:32:00,
2013-03-12 18:42:00,87.0,21.0,-100.00,ESE,108,5.0,10.0,9,0.00,,,0.00,296.000000,,2013-03-13 01:42:00,
2013-03-12 18:52:00,81.0,24.0,-100.00,South,171,1.0,9.0,12,0.00,,,0.00,18.000000,,2013-03-13 01:52:00,
2013-03-12 19:12:00,81.0,24.0,-100.00,South,171,1.0,9.0,12,0.00,,,0.00,18.000000,,2013-03-13 02:12:00,
2013-03-12 19:22:00,81.0,24.0,-100.00,South,171,1.0,9.0,12,0.00,,,0.00,18.000000,,2013-03-13 02:22:00,
2013-03-12 19:32:00,81.0,24.0,-100.00,South,171,1.0,9.0,12,0.00,,,0.00,18.000000,,2013-03-13 02:32:00,
2013-03-12 19:42:00,81.0,24.0,-100.00,South,171,1.0,9.0,12,0.00,,,0.00,18.000000,,2013-03-13 02:42:00,
2013-03-12 20:12:00,77.0,20.0,-100.00,SSE,155,0.0,8.0,12,0.00,,,0.00,0.000000,,2013-03-13 03:12:00,
2013-03-12 20:52:00,74.0,26.0,-100.00,WNW,290,0.0,5.0,17,0.00,,,0.00,0.000000,,2013-03-13 03:52:00,
2013-03-12 21:22:00,74.0,26.0,-100.00,WNW,290,0.0,5.0,17,0.00,,,0.00,0.000000,,2013-03-13 04:22:00,
2013-03-12 21:32:00,74.0,26.0,-100.00,WNW,290,0.0,5.0,17,0.00,,,0.00,0.000000,,2013-03-13 04:32:00,
2013-03-12 21:42:00,74.0,26.0,-100.00,WNW,290,0.0,5.0,17,0.00,,,0.00,0.000000,,2013-03-13 04:42:00,
2013-03-12 21:52:00,72.0,23.0,-100.00,WSW,243,0.0,4.0,16,0.00,,,0.00,0.000000,,2013-03-13 04:52:00,
2013-03-12 22:22:00,72.0,23.0,-100.00,WSW,243,0.0,4.0,16,0.00,,,0.00,0.000000,,2013-03-13 05:22:00,
2013-03-12 22:32:00,72.0,23.0,-100.00,WSW,243,0.0,4.0,16,0.00,,,0.00,0.000000,,2013-03-13 05:32:00,
2013-03-12 22:42:00,72.0,23.0,-100.00,WSW,243,0.0,4.0,16,0.00,,,0.00,0.000000,,2013-03-13 05:42:00,
2013-03-12 23:22:00,72.0,22.0,-100.00,WSW,241,0.0,7.0,15,0.00,,,0.00,0.000000,,2013-03-13 06:22:00,
2013-03-12 23:52:00,69.0,27.0,-100.00,South,171,2.0,5.0,21,0.00,,,0.00,0.000000,,2013-03-13 06:52:00,